Time,TemperatureF,DewpointF,PressureIn,WindDirection,WindDirectionDegrees,WindSpeedMPH,WindSpeedGustMPH,Humidity,HourlyPrecipIn,Conditions,Clouds,dailyrainin,SoftwareType,DateUTC
2013-02-28 00:00:00,34.8,35.0,29.60,North,360,1.4,4.0,98,0.00,,,0.99,Rainwise IP-100,2013-02-28 05:00:00,
2013-02-28 00:05:00,34.8,35.0,29.60,NNW,337,2.6,3.5,98,0.00,,,0.00,Rainwise IP-100,2013-02-28 05:05:00,
2013-02-28 00:10:00,34.7,35.0,29.61,NNW,337,2.1,4.0,98,0.00,,,0.00,Rainwise IP-100,2013-02-28 05:10:00,
2013-02-28 00:15:00,34.7,35.0,29.60,NW,315,2.8,3.5,98,0.00,,,0.00,Rainwise IP-100,2013-02-28 05:15:00,
2013-02-28 00:20:00,34.7,35.0,29.60,NW,315,2.6,4.4,98,0.00,,,0.00,Rainwise IP-100,2013-02-28 05:20:00,
2013-02-28 00:25:00,34.7,35.0,29.60,NNW,337,0.0,3.0,98,0.00,,,0.00,Rainwise IP-100,2013-02-28 05:25:00,
2013-02-28 00:30:00,34.7,35.0,29.60,NNW,337,1.2,3.0,98,0.00,,,0.00,Rainwise IP-100,2013-02-28 05:30:00,
2013-02-28 00:35:00,34.6,35.0,29.60,NNW,337,1.9,2.8,98,0.00,,,0.00,Rainwise IP-100,2013-02-28 05:35:00,
2013-02-28 00:40:00,34.5,35.0,29.61,NW,315,2.1,2.8,98,0.00,,,0.00,Rainwise IP-100,2013-02-28 05:40:00,
2013-02-28 00:45:00,34.5,35.0,29.61,NW,315,0.0,5.1,99,0.00,,,0.00,Rainwise IP-100,2013-02-28 05:45:00,
2013-02-28 00:50:00,34.5,35.0,29.60,NW,315,0.0,3.7,99,0.00,,,0.00,Rainwise IP-100,2013-02-28 05:50:00,
2013-02-28 00:55:00,34.6,35.0,29.60,NW,315,0.0,3.7,99,0.00,,,0.00,Rainwise IP-100,2013-02-28 05:55:00,
2013-02-28 01:00:00,34.6,35.0,29.61,NW,315,0.0,3.7,99,0.00,,,0.00,Rainwise IP-100,2013-02-28 06:00:00,
2013-02-28 01:05:00,34.6,35.0,29.60,NNW,337,2.3,3.0,99,0.00,,,0.00,Rainwise IP-100,2013-02-28 06:05:00,
2013-02-28 01:10:00,34.6,35.0,29.61,North,360,2.6,4.0,99,0.00,,,0.00,Rainwise IP-100,2013-02-28 06:10:00,
2013-02-28 01:15:00,34.6,35.0,29.60,North,360,0.0,2.6,99,0.00,,,0.00,Rainwise IP-100,2013-02-28 06:15:00,
2013-02-28 01:20:00,34.6,35.0,29.60,North,360,0.0,2.1,99,0.00,,,0.00,Rainwise IP-100,2013-02-28 06:20:00,
2013-02-28 01:25:00,34.6,35.0,29.60,NE,45,1.2,3.5,99,0.00,,,0.00,Rainwise IP-100,2013-02-28 06:25:00,
2013-02-28 01:30:00,34.5,35.0,29.59,NE,45,0.0,2.3,99,0.00,,,0.00,Rainwise IP-100,2013-02-28 06:30:00,
2013-02-28 01:35:00,34.5,35.0,29.59,East,90,1.2,1.9,99,0.00,,,0.00,Rainwise IP-100,2013-02-28 06:35:00,
2013-02-28 01:40:00,34.5,35.0,29.59,NNE,22,1.2,2.3,99,0.00,,,0.00,Rainwise IP-100,2013-02-28 06:40:00,
2013-02-28 01:45:00,34.4,35.0,29.60,NNE,22,2.3,2.3,99,0.00,,,0.00,Rainwise IP-100,2013-02-28 06:45:00,
2013-02-28 01:50:00,34.3,35.0,29.59,NNE,22,0.0,3.3,99,0.00,,,0.00,Rainwise IP-100,2013-02-28 06:50:00,
2013-02-28 01:55:00,34.3,35.0,29.59,NNE,22,0.0,2.1,99,0.00,,,0.00,Rainwise IP-100,2013-02-28 06:55:00,
2013-02-28 02:00:00,34.3,35.0,29.59,NNE,22,0.0,1.6,99,0.00,,,0.00,Rainwise IP-100,2013-02-28 07:00:00,
2013-02-28 02:05:00,34.3,35.0,29.59,NNE,22,0.0,1.4,99,0.00,,,0.00,Rainwise IP-100,2013-02-28 07:05:00,
2013-02-28 02:10:00,34.3,35.0,29.60,NNE,22,0.0,1.6,99,0.00,,,0.00,Rainwise IP-100,2013-02-28 07:10:00,
2013-02-28 02:15:00,34.3,35.0,29.60,NNE,22,0.0,1.6,99,0.00,,,0.00,Rainwise IP-100,2013-02-28 07:15:00,
2013-02-28 02:20:00,34.3,35.0,29.59,NNE,22,0.0,0.0,99,0.00,,,0.00,Rainwise IP-100,2013-02-28 07:20:00,
2013-02-28 02:25:00,34.2,35.0,29.59,NNE,22,1.4,1.9,99,0.00,,,0.00,Rainwise IP-100,2013-02-28 07:25:00,
2013-02-28 02:30:00,34.2,35.0,29.58,NNE,22,1.9,2.3,99,0.00,,,0.00,Rainwise IP-100,2013-02-28 07:30:00,
2013-02-28 02:35:00,34.1,35.0,29.57,NNE,22,0.0,2.6,99,0.00,,,0.00,Rainwise IP-100,2013-02-28 07:35:00,
2013-02-28 02:40:00,33.9,35.0,29.58,NNE,22,3.0,4.0,99,0.00,,,0.00,Rainwise IP-100,2013-02-28 07:40:00,
2013-02-28 02:45:00,33.8,35.0,29.58,NNE,22,1.2,4.4,99,0.00,,,0.00,Rainwise IP-100,2013-02-28 07:45:00,
2013-02-28 02:50:00,33.6,35.0,29.58,North,360,0.0,3.5,99,0.00,,,0.00,Rainwise IP-100,2013-02-28 07:50:00,
2013-02-28 02:55:00,33.4,33.0,29.58,North,360,0.0,1.9,99,0.00,,,0.00,Rainwise IP-100,2013-02-28 07:55:00,
2013-02-28 03:00:00,33.2,33.0,29.58,North,360,0.0,1.6,99,0.00,,,0.00,Rainwise IP-100,2013-02-28 08:00:00,
2013-02-28 03:02:00,33.1,33.0,29.58,North,360,0.0,1.6,99,0.00,,,0.00,Rainwise IP-100,2013-02-28 08:02:00,
2013-02-28 03:07:00,32.9,33.0,29.58,North,360,0.0,1.4,99,0.00,,,0.00,Rainwise IP-100,2013-02-28 08:07:00,
2013-02-28 03:12:00,32.9,33.0,29.58,North,360,0.0,0.0,99,0.00,,,0.00,Rainwise IP-100,2013-02-28 08:12:00,
2013-02-28 03:17:00,32.9,33.0,29.58,North,360,0.0,0.0,99,0.00,,,0.00,Rainwise IP-100,2013-02-28 08:17:00,
2013-02-28 03:22:00,32.7,33.0,29.59,West,270,1.4,2.1,99,0.00,,,0.00,Rainwise IP-100,2013-02-28 08:22:00,
2013-02-28 03:27:00,32.5,33.0,29.59,West,270,0.0,1.6,99,0.00,,,0.00,Rainwise IP-100,2013-02-28 08:27:00,
2013-02-28 03:32:00,32.5,33.0,29.59,West,270,0.0,1.2,99,0.00,,,0.00,Rainwise IP-100,2013-02-28 08:32:00,
2013-02-28 03:37:00,32.4,32.0,29.59,West,270,0.0,0.0,99,0.00,,,0.00,Rainwise IP-100,2013-02-28 08:37:00,
2013-02-28 03:42:00,32.6,33.0,29.60,West,270,0.0,0.0,99,0.00,,,0.00,Rainwise IP-100,2013-02-28 08:42:00,
2013-02-28 03:47:00,32.8,33.0,29.59,West,270,0.0,0.0,99,0.00,,,0.00,Rainwise IP-100,2013-02-28 08:47:00,
2013-02-28 03:52:00,32.9,33.0,29.59,West,270,0.0,0.0,99,0.00,,,0.00,Rainwise IP-100,2013-02-28 08:52:00,
2013-02-28 03:57:00,32.9,33.0,29.59,West,270,0.0,1.2,99,0.00,,,0.00,Rainwise IP-100,2013-02-28 08:57:00,
2013-02-28 04:02:00,32.9,33.0,29.59,West,270,0.0,0.0,99,0.00,,,0.00,Rainwise IP-100,2013-02-28 09:02:00,
2013-02-28 04:07:00,32.9,33.0,29.58,West,270,0.0,0.0,99,0.00,,,0.00,Rainwise IP-100,2013-02-28 09:07:00,
2013-02-28 04:12:00,32.9,33.0,29.59,West,270,0.0,0.0,99,0.00,,,0.00,Rainwise IP-100,2013-02-28 09:12:00,
2013-02-28 04:17:00,32.9,33.0,29.60,West,270,0.0,0.0,99,0.00,,,0.00,Rainwise IP-100,2013-02-28 09:17:00,
2013-02-28 04:22:00,33.0,33.0,29.60,West,270,0.0,0.0,99,0.00,,,0.00,Rainwise IP-100,2013-02-28 09:22:00,
2013-02-28 04:27:00,33.0,33.0,29.60,West,270,0.0,0.0,99,0.00,,,0.00,Rainwise IP-100,2013-02-28 09:27:00,
2013-02-28 04:32:00,33.0,33.0,29.60,West,270,0.0,1.6,99,0.00,,,0.00,Rainwise IP-100,2013-02-28 09:32:00,
2013-02-28 04:37:00,33.1,33.0,29.61,West,270,0.0,0.0,99,0.00,,,0.00,Rainwise IP-100,2013-02-28 09:37:00,
2013-02-28 04:42:00,33.2,33.0,29.61,West,270,0.0,0.0,99,0.00,,,0.00,Rainwise IP-100,2013-02-28 09:42:00,
2013-02-28 04:47:00,33.3,33.0,29.61,West,270,0.0,0.0,99,0.00,,,0.00,Rainwise IP-100,2013-02-28 09:47:00,
2013-02-28 04:52:00,33.4,33.0,29.60,West,270,0.0,0.0,99,0.00,,,0.00,Rainwise IP-100,2013-02-28 09:52:00,
2013-02-28 04:57:00,33.5,35.0,29.60,West,270,0.0,0.0,99,0.00,,,0.00,Rainwise IP-100,2013-02-28 09:57:00,
2013-02-28 05:02:00,33.4,33.0,29.60,West,270,0.0,0.0,99,0.00,,,0.00,Rainwise IP-100,2013-02-28 10:02:00,
2013-02-28 05:07:00,33.4,33.0,29.60,West,270,0.0,0.0,99,0.00,,,0.00,Rainwise IP-100,2013-02-28 10:07:00,
2013-02-28 05:12:00,33.4,33.0,29.60,West,270,0.0,0.0,99,0.00,,,0.00,Rainwise IP-100,2013-02-28 10:12:00,
2013-02-28 05:17:00,33.4,33.0,29.60,West,270,0.0,1.2,99,0.00,,,0.00,Rainwise IP-100,2013-02-28 10:17:00,
2013-02-28 05:22:00,33.4,33.0,29.60,West,270,0.0,0.0,99,0.00,,,0.00,Rainwise IP-100,2013-02-28 10:22:00,
2013-02-28 05:27:00,33.4,33.0,29.60,West,270,0.0,0.0,100,0.00,,,0.00,Rainwise IP-100,2013-02-28 10:27:00,
2013-02-28 05:32:00,33.4,33.0,29.60,West,270,0.0,0.0,100,0.00,,,0.00,Rainwise IP-100,2013-02-28 10:32:00,
2013-02-28 05:37:00,33.4,33.0,29.60,West,270,0.0,0.0,100,0.00,,,0.00,Rainwise IP-100,2013-02-28 10:37:00,
2013-02-28 05:42:00,33.4,33.0,29.60,West,270,0.0,0.0,100,0.00,,,0.00,Rainwise IP-100,2013-02-28 10:42:00,
2013-02-28 05:47:00,33.3,33.0,29.60,West,270,1.2,1.6,100,0.00,,,0.00,Rainwise IP-100,2013-02-28 10:47:00,
2013-02-28 05:52:00,33.2,33.0,29.60,West,270,0.0,1.2,100,0.00,,,0.00,Rainwise IP-100,2013-02-28 10:52:00,
2013-02-28 05:57:00,33.2,33.0,29.60,West,270,0.0,0.0,100,0.00,,,0.00,Rainwise IP-100,2013-02-28 10:57:00,
2013-02-28 06:02:00,33.2,33.0,29.60,West,270,0.0,0.0,100,0.00,,,0.00,Rainwise IP-100,2013-02-28 11:02:00,
2013-02-28 06:07:00,33.2,33.0,29.60,West,270,0.0,0.0,100,0.00,,,0.00,Rainwise IP-100,2013-02-28 11:07:00,
2013-02-28 06:12:00,33.2,33.0,29.60,West,270,0.0,0.0,100,0.00,,,0.00,Rainwise IP-100,2013-02-28 11:12:00,
2013-02-28 06:17:00,33.1,33.0,29.60,West,270,0.0,0.0,100,0.00,,,0.00,Rainwise IP-100,2013-02-28 11:17:00,
2013-02-28 06:22:00,33.2,33.0,29.60,West,270,0.0,0.0,100,0.00,,,0.00,Rainwise IP-100,2013-02-28 11:22:00,
2013-02-28 06:27:00,33.3,33.0,29.60,West,270,0.0,0.0,100,0.00,,,0.00,Rainwise IP-100,2013-02-28 11:27:00,
2013-02-28 06:32:00,33.4,33.0,29.60,West,270,0.0,0.0,100,0.00,,,0.00,Rainwise IP-100,2013-02-28 11:32:00,
2013-02-28 06:37:00,33.4,33.0,29.60,West,270,0.0,0.0,100,0.00,,,0.00,Rainwise IP-100,2013-02-28 11:37:00,
2013-02-28 06:42:00,33.4,33.0,29.60,West,270,0.0,0.0,100,0.00,,,0.00,Rainwise IP-100,2013-02-28 11:42:00,
2013-02-28 06:47:00,33.4,33.0,29.60,West,270,0.0,0.0,100,0.00,,,0.00,Rainwise IP-100,2013-02-28 11:47:00,
2013-02-28 06:52:00,33.4,33.0,29.60,West,270,0.0,0.0,100,0.00,,,0.00,Rainwise IP-100,2013-02-28 11:52:00,
2013-02-28 06:57:00,33.4,33.0,29.61,West,270,0.0,1.4,100,0.00,,,0.00,Rainwise IP-100,2013-02-28 11:57:00,
2013-02-28 07:02:00,33.4,33.0,29.61,West,270,0.0,1.2,100,0.00,,,0.00,Rainwise IP-100,2013-02-28 12:02:00,
2013-02-28 07:07:00,33.5,35.0,29.60,West,270,0.0,0.0,100,0.00,,,0.00,Rainwise IP-100,2013-02-28 12:07:00,
2013-02-28 07:12:00,33.7,35.0,29.59,West,270,0.0,1.4,100,0.00,,,0.00,Rainwise IP-100,2013-02-28 12:12:00,
2013-02-28 07:17:00,33.7,35.0,29.60,West,270,0.0,0.0,100,0.00,,,0.00,Rainwise IP-100,2013-02-28 12:17:00,
2013-02-28 07:22:00,33.7,35.0,29.61,WSW,247,0.0,1.2,100,0.00,,,0.00,Rainwise IP-100,2013-02-28 12:22:00,
2013-02-28 07:27:00,33.8,35.0,29.61,WSW,247,0.0,0.0,100,0.00,,,0.00,Rainwise IP-100,2013-02-28 12:27:00,
2013-02-28 07:32:00,33.8,35.0,29.60,WSW,247,0.0,0.0,100,0.00,,,0.00,Rainwise IP-100,2013-02-28 12:32:00,
2013-02-28 07:37:00,33.8,35.0,29.61,South,180,1.6,2.1,100,0.00,,,0.00,Rainwise IP-100,2013-02-28 12:37:00,
2013-02-28 07:42:00,33.9,35.0,29.61,SSE,157,1.4,2.3,100,0.00,,,0.00,Rainwise IP-100,2013-02-28 12:42:00,
2013-02-28 07:47:00,33.9,35.0,29.62,SSE,157,0.0,2.1,100,0.00,,,0.00,Rainwise IP-100,2013-02-28 12:47:00,
2013-02-28 07:52:00,34.0,35.0,29.61,SSE,157,0.0,0.0,100,0.00,,,0.00,Rainwise IP-100,2013-02-28 12:52:00,
2013-02-28 07:57:00,34.1,35.0,29.62,SSE,157,1.2,0.0,100,0.06,,,0.01,Rainwise IP-100,2013-02-28 12:57:00,
2013-02-28 08:02:00,34.3,35.0,29.61,SSE,157,0.0,1.2,100,0.06,,,0.01,Rainwise IP-100,2013-02-28 13:02:00,
2013-02-28 08:07:00,34.5,35.0,29.61,SSE,157,0.0,1.4,100,0.00,,,0.01,Rainwise IP-100,2013-02-28 13:07:00,
2013-02-28 08:12:00,34.7,35.0,29.62,SSE,157,1.2,1.6,100,0.00,,,0.01,Rainwise IP-100,2013-02-28 13:12:00,
2013-02-28 08:17:00,34.8,35.0,29.61,SSE,157,0.0,2.3,100,0.00,,,0.01,Rainwise IP-100,2013-02-28 13:17:00,
2013-02-28 08:22:00,34.8,35.0,29.61,SE,135,0.0,2.6,100,0.00,,,0.01,Rainwise IP-100,2013-02-28 13:22:00,
2013-02-28 08:27:00,34.9,35.0,29.61,ESE,112,2.6,3.0,100,0.00,,,0.01,Rainwise IP-100,2013-02-28 13:27:00,
2013-02-28 08:32:00,34.9,35.0,29.61,SE,135,2.1,3.3,100,0.00,,,0.01,Rainwise IP-100,2013-02-28 13:32:00,
2013-02-28 08:37:00,35.1,35.0,29.61,SE,135,0.0,2.6,100,0.00,,,0.01,Rainwise IP-100,2013-02-28 13:37:00,
2013-02-28 08:42:00,35.4,35.0,29.61,SE,135,0.0,0.0,100,0.00,,,0.01,Rainwise IP-100,2013-02-28 13:42:00,
2013-02-28 08:47:00,35.6,36.0,29.61,SE,135,0.0,1.4,100,0.00,,,0.01,Rainwise IP-100,2013-02-28 13:47:00,
2013-02-28 08:52:00,35.6,36.0,29.62,SE,135,0.0,1.2,100,0.00,,,0.01,Rainwise IP-100,2013-02-28 13:52:00,
2013-02-28 08:57:00,35.6,36.0,29.62,SE,135,1.2,1.2,100,0.00,,,0.01,Rainwise IP-100,2013-02-28 13:57:00,
2013-02-28 09:02:00,35.6,36.0,29.61,SE,135,0.0,1.9,100,0.00,,,0.01,Rainwise IP-100,2013-02-28 14:02:00,
2013-02-28 09:07:00,35.7,36.0,29.61,SE,135,0.0,2.1,99,0.00,,,0.01,Rainwise IP-100,2013-02-28 14:07:00,
2013-02-28 09:12:00,35.9,36.0,29.61,SE,135,0.0,1.4,99,0.00,,,0.01,Rainwise IP-100,2013-02-28 14:12:00,
2013-02-28 09:17:00,36.2,36.0,29.61,SE,135,0.0,0.0,99,0.00,,,0.01,Rainwise IP-100,2013-02-28 14:17:00,
2013-02-28 09:22:00,36.5,37.0,29.61,SE,135,0.0,0.0,99,0.00,,,0.01,Rainwise IP-100,2013-02-28 14:22:00,
2013-02-28 09:27:00,36.7,37.0,29.61,SE,135,0.0,0.0,99,0.00,,,0.01,Rainwise IP-100,2013-02-28 14:27:00,
2013-02-28 09:32:00,37.1,37.0,29.61,SE,135,0.0,1.9,98,0.00,,,0.01,Rainwise IP-100,2013-02-28 14:32:00,
2013-02-28 09:37:00,37.3,37.0,29.61,SE,135,0.0,0.0,98,0.00,,,0.01,Rainwise IP-100,2013-02-28 14:37:00,
2013-02-28 09:42:00,37.5,37.0,29.61,SE,135,0.0,1.6,97,0.00,,,0.01,Rainwise IP-100,2013-02-28 14:42:00,
2013-02-28 09:47:00,37.8,37.0,29.61,SE,135,0.0,0.0,97,0.00,,,0.01,Rainwise IP-100,2013-02-28 14:47:00,
2013-02-28 09:52:00,37.9,37.0,29.61,NE,45,0.0,0.0,97,0.00,,,0.01,Rainwise IP-100,2013-02-28 14:52:00,
2013-02-28 09:57:00,37.8,37.0,29.60,East,90,0.0,1.2,96,0.00,,,0.01,Rainwise IP-100,2013-02-28 14:57:00,
2013-02-28 10:02:00,37.8,37.0,29.61,North,360,2.3,3.5,96,0.00,,,0.01,Rainwise IP-100,2013-02-28 15:02:00,
2013-02-28 10:07:00,38.0,37.0,29.60,North,360,0.0,2.6,96,0.00,,,0.01,Rainwise IP-100,2013-02-28 15:07:00,
2013-02-28 10:12:00,37.9,37.0,29.61,North,360,0.0,1.6,96,0.00,,,0.01,Rainwise IP-100,2013-02-28 15:12:00,
2013-02-28 10:17:00,38.0,37.0,29.61,North,360,2.3,3.0,96,0.00,,,0.01,Rainwise IP-100,2013-02-28 15:17:00,
2013-02-28 10:22:00,38.4,37.0,29.61,North,360,0.0,2.8,96,0.00,,,0.01,Rainwise IP-100,2013-02-28 15:22:00,
2013-02-28 10:27:00,38.8,38.0,29.60,North,360,0.0,1.9,96,0.00,,,0.01,Rainwise IP-100,2013-02-28 15:27:00,
2013-02-28 10:32:00,39.0,38.0,29.60,ESE,112,1.9,2.6,95,0.00,,,0.01,Rainwise IP-100,2013-02-28 15:32:00,
2013-02-28 10:33:00,39.1,38.0,29.60,ESE,112,2.6,2.6,95,0.00,,,0.01,Rainwise IP-100,2013-02-28 15:33:00,
2013-02-28 10:38:00,38.7,37.0,29.60,SE,135,1.6,3.5,93,0.00,,,0.01,Rainwise IP-100,2013-02-28 15:38:00,
2013-02-28 10:43:00,39.0,37.0,29.60,NNW,337,1.4,2.8,93,0.00,,,0.01,Rainwise IP-100,2013-02-28 15:43:00,
2013-02-28 10:48:00,39.6,38.0,29.60,NNW,337,0.0,2.8,93,0.00,,,0.01,Rainwise IP-100,2013-02-28 15:48:00,
2013-02-28 10:53:00,39.9,38.0,29.60,NE,45,1.2,1.9,92,0.00,,,0.01,Rainwise IP-100,2013-02-28 15:53:00,
2013-02-28 10:58:00,40.2,38.0,29.59,North,360,1.2,1.4,91,0.00,,,0.01,Rainwise IP-100,2013-02-28 15:58:00,
2013-02-28 11:03:00,40.6,39.0,29.59,NE,45,0.0,1.2,91,0.00,,,0.01,Rainwise IP-100,2013-02-28 16:03:00,
2013-02-28 11:08:00,40.3,38.0,29.59,ENE,67,0.0,2.3,90,0.00,,,0.01,Rainwise IP-100,2013-02-28 16:08:00,
2013-02-28 11:13:00,40.1,37.0,29.59,North,360,1.2,2.1,89,0.00,,,0.01,Rainwise IP-100,2013-02-28 16:13:00,
2013-02-28 11:18:00,40.4,37.0,29.59,ESE,112,0.0,2.8,89,0.00,,,0.01,Rainwise IP-100,2013-02-28 16:18:00,
2013-02-28 11:23:00,40.5,38.0,29.59,NNE,22,0.0,2.6,88,0.00,,,0.01,Rainwise IP-100,2013-02-28 16:23:00,
2013-02-28 11:28:00,40.5,38.0,29.59,NNE,22,0.0,1.6,88,0.00,,,0.01,Rainwise IP-100,2013-02-28 16:28:00,
2013-02-28 11:33:00,40.8,38.0,29.59,NE,45,2.6,2.6,88,0.00,,,0.01,Rainwise IP-100,2013-02-28 16:33:00,
2013-02-28 11:38:00,41.1,38.0,29.58,NNE,22,0.0,2.6,88,0.00,,,0.01,Rainwise IP-100,2013-02-28 16:38:00,
2013-02-28 11:43:00,41.2,38.0,29.58,NE,45,0.0,3.0,87,0.00,,,0.01,Rainwise IP-100,2013-02-28 16:43:00,
2013-02-28 11:48:00,41.5,38.0,29.58,NNE,22,0.0,1.2,87,0.00,,,0.01,Rainwise IP-100,2013-02-28 16:48:00,
2013-02-28 11:53:00,42.0,38.0,29.58,NNE,22,1.9,1.9,86,0.00,,,0.01,Rainwise IP-100,2013-02-28 16:53:00,
2013-02-28 11:58:00,41.9,38.0,29.58,SE,135,1.4,3.7,86,0.00,,,0.01,Rainwise IP-100,2013-02-28 16:58:00,
2013-02-28 12:03:00,41.7,38.0,29.57,ESE,112,1.2,3.0,85,0.00,,,0.01,Rainwise IP-100,2013-02-28 17:03:00,
2013-02-28 12:06:00,41.8,38.0,29.57,ENE,67,0.0,3.0,85,0.00,,,0.01,Rainwise IP-100,2013-02-28 17:06:00,
2013-02-28 12:08:00,42.1,38.0,29.57,SSE,157,0.0,3.0,85,0.00,,,0.01,Rainwise IP-100,2013-02-28 17:08:00,
2013-02-28 12:13:00,43.0,39.0,29.57,East,90,0.0,3.5,84,0.00,,,0.01,Rainwise IP-100,2013-02-28 17:13:00,
2013-02-28 12:18:00,43.7,39.0,29.56,SE,135,0.0,2.6,83,0.00,,,0.01,Rainwise IP-100,2013-02-28 17:18:00,
2013-02-28 12:23:00,43.5,39.0,29.56,ESE,112,1.4,3.7,82,0.00,,,0.01,Rainwise IP-100,2013-02-28 17:23:00,
2013-02-28 12:28:00,42.9,38.0,29.56,ESE,112,0.0,2.3,82,0.00,,,0.01,Rainwise IP-100,2013-02-28 17:28:00,
2013-02-28 12:33:00,43.1,38.0,29.56,North,360,3.3,3.3,82,0.00,,,0.01,Rainwise IP-100,2013-02-28 17:33:00,
2013-02-28 12:38:00,43.0,38.0,29.56,North,360,2.3,4.0,82,0.00,,,0.01,Rainwise IP-100,2013-02-28 17:38:00,
2013-02-28 12:43:00,43.0,38.0,29.56,NW,315,0.0,4.2,82,0.00,,,0.01,Rainwise IP-100,2013-02-28 17:43:00,
2013-02-28 12:48:00,43.1,38.0,29.56,North,360,1.9,3.5,82,0.00,,,0.01,Rainwise IP-100,2013-02-28 17:48:00,
2013-02-28 12:53:00,43.1,38.0,29.56,NW,315,2.6,5.4,82,0.00,,,0.01,Rainwise IP-100,2013-02-28 17:53:00,
2013-02-28 12:58:00,43.1,38.0,29.56,North,360,1.2,3.7,82,0.00,,,0.01,Rainwise IP-100,2013-02-28 17:58:00,
2013-02-28 13:03:00,43.1,38.0,29.55,NW,315,0.0,4.2,81,0.00,,,0.01,Rainwise IP-100,2013-02-28 18:03:00,
2013-02-28 13:08:00,43.2,38.0,29.55,NW,315,0.0,4.9,81,0.00,,,0.01,Rainwise IP-100,2013-02-28 18:08:00,
2013-02-28 13:13:00,43.6,38.0,29.55,NNW,337,0.0,2.8,81,0.00,,,0.01,Rainwise IP-100,2013-02-28 18:13:00,
2013-02-28 13:18:00,44.6,39.0,29.54,SE,135,0.0,4.2,81,0.00,,,0.01,Rainwise IP-100,2013-02-28 18:18:00,
2013-02-28 13:22:00,45.2,39.0,29.54,ESE,112,0.0,4.2,79,0.00,,,0.01,Rainwise IP-100,2013-02-28 18:22:00,
2013-02-28 13:23:00,45.3,39.0,29.54,NE,45,2.6,3.7,79,0.00,,,0.01,Rainwise IP-100,2013-02-28 18:23:00,
2013-02-28 13:25:00,45.5,39.0,29.54,ENE,67,3.3,5.8,78,0.00,,,0.01,Rainwise IP-100,2013-02-28 18:25:00,
2013-02-28 13:30:00,45.6,39.0,29.54,ESE,112,2.1,4.7,76,0.00,,,0.01,Rainwise IP-100,2013-02-28 18:30:00,
2013-02-28 13:32:00,45.6,39.0,29.53,SE,135,1.6,3.5,76,0.00,,,0.01,Rainwise IP-100,2013-02-28 18:32:00,
2013-02-28 13:37:00,46.0,38.0,29.53,ENE,67,4.2,6.8,75,0.00,,,0.01,Rainwise IP-100,2013-02-28 18:37:00,
2013-02-28 13:42:00,46.0,38.0,29.53,NNE,22,1.2,6.5,74,0.00,,,0.01,Rainwise IP-100,2013-02-28 18:42:00,
2013-02-28 13:47:00,45.5,38.0,29.53,SE,135,0.0,5.1,74,0.00,,,0.01,Rainwise IP-100,2013-02-28 18:47:00,
2013-02-28 13:52:00,45.4,38.0,29.53,SE,135,0.0,3.3,75,0.00,,,0.01,Rainwise IP-100,2013-02-28 18:52:00,
2013-02-28 13:54:00,45.6,38.0,29.53,SE,135,0.0,3.3,75,0.00,,,0.01,Rainwise IP-100,2013-02-28 18:54:00,
2013-02-28 13:59:00,46.3,38.0,29.54,North,360,0.0,4.4,75,0.00,,,0.01,Rainwise IP-100,2013-02-28 18:59:00,
2013-02-28 14:04:00,46.6,38.0,29.54,NNE,22,0.0,5.4,73,0.00,,,0.01,Rainwise IP-100,2013-02-28 19:04:00,
2013-02-28 14:09:00,46.2,38.0,29.53,North,360,3.3,4.4,73,0.00,,,0.01,Rainwise IP-100,2013-02-28 19:09:00,
2013-02-28 14:14:00,45.6,38.0,29.54,North,360,0.0,4.4,73,0.00,,,0.01,Rainwise IP-100,2013-02-28 19:14:00,
2013-02-28 14:19:00,45.1,37.0,29.54,North,360,0.0,2.8,73,0.00,,,0.01,Rainwise IP-100,2013-02-28 19:19:00,
2013-02-28 14:24:00,44.9,37.0,29.54,North,360,0.0,1.6,74,0.00,,,0.01,Rainwise IP-100,2013-02-28 19:24:00,
2013-02-28 14:29:00,45.3,37.0,29.53,SW,225,0.0,2.3,74,0.00,,,0.01,Rainwise IP-100,2013-02-28 19:29:00,
2013-02-28 14:34:00,46.5,38.0,29.53,NW,315,1.2,2.6,73,0.00,,,0.01,Rainwise IP-100,2013-02-28 19:34:00,
2013-02-28 14:39:00,47.6,39.0,29.54,NNE,22,4.0,4.0,72,0.00,,,0.01,Rainwise IP-100,2013-02-28 19:39:00,
2013-02-28 14:44:00,48.0,39.0,29.54,North,360,2.6,5.8,70,0.00,,,0.01,Rainwise IP-100,2013-02-28 19:44:00,
2013-02-28 14:49:00,47.9,38.0,29.53,North,360,0.0,3.3,69,0.00,,,0.01,Rainwise IP-100,2013-02-28 19:49:00,
2013-02-28 14:52:00,47.7,38.0,29.53,NNW,337,0.0,1.4,69,0.00,,,0.01,Rainwise IP-100,2013-02-28 19:52:00,
2013-02-28 14:57:00,47.3,38.0,29.53,NNW,337,0.0,0.0,69,0.00,,,0.01,Rainwise IP-100,2013-02-28 19:57:00,
2013-02-28 15:02:00,46.9,37.0,29.54,NNW,337,0.0,0.0,70,0.00,,,0.01,Rainwise IP-100,2013-02-28 20:02:00,
2013-02-28 15:07:00,46.3,37.0,29.53,North,360,2.3,2.3,70,0.00,,,0.01,Rainwise IP-100,2013-02-28 20:07:00,
2013-02-28 15:12:00,45.9,37.0,29.54,NNE,22,3.5,3.5,71,0.00,,,0.01,Rainwise IP-100,2013-02-28 20:12:00,
2013-02-28 15:17:00,45.7,37.0,29.53,NNE,22,3.3,4.0,71,0.00,,,0.01,Rainwise IP-100,2013-02-28 20:17:00,
2013-02-28 15:22:00,45.8,37.0,29.53,ENE,67,0.0,4.0,72,0.00,,,0.01,Rainwise IP-100,2013-02-28 20:22:00,
2013-02-28 15:27:00,46.3,37.0,29.52,North,360,3.7,3.7,71,0.00,,,0.01,Rainwise IP-100,2013-02-28 20:27:00,
2013-02-28 15:32:00,46.5,38.0,29.53,North,360,0.0,4.7,71,0.00,,,0.01,Rainwise IP-100,2013-02-28 20:32:00,
2013-02-28 15:37:00,46.2,37.0,29.53,North,360,2.8,4.0,71,0.00,,,0.01,Rainwise IP-100,2013-02-28 20:37:00,
2013-02-28 15:42:00,45.7,37.0,29.53,NNW,337,4.4,5.8,71,0.00,,,0.01,Rainwise IP-100,2013-02-28 20:42:00,
2013-02-28 15:47:00,44.9,37.0,29.53,NNW,337,1.4,6.1,72,0.00,,,0.01,Rainwise IP-100,2013-02-28 20:47:00,
2013-02-28 15:52:00,44.2,36.0,29.54,NNW,337,1.4,7.7,74,0.00,,,0.01,Rainwise IP-100,2013-02-28 20:52:00,
2013-02-28 15:57:00,43.6,37.0,29.53,North,360,1.4,5.4,75,0.00,,,0.01,Rainwise IP-100,2013-02-28 20:57:00,
2013-02-28 16:02:00,43.3,36.0,29.53,NE,45,3.3,7.5,76,0.00,,,0.01,Rainwise IP-100,2013-02-28 21:02:00,
2013-02-28 16:07:00,43.1,37.0,29.52,NNW,337,4.0,4.4,77,0.00,,,0.01,Rainwise IP-100,2013-02-28 21:07:00,
2013-02-28 16:12:00,43.0,37.0,29.53,NNW,337,3.0,5.4,78,0.00,,,0.01,Rainwise IP-100,2013-02-28 21:12:00,
2013-02-28 16:17:00,42.9,37.0,29.53,NNW,337,2.1,5.4,78,0.00,,,0.01,Rainwise IP-100,2013-02-28 21:17:00,
2013-02-28 16:22:00,42.8,37.0,29.53,NE,45,0.0,4.9,78,0.00,,,0.01,Rainwise IP-100,2013-02-28 21:22:00,
2013-02-28 16:27:00,42.7,37.0,29.53,North,360,2.1,5.6,79,0.00,,,0.01,Rainwise IP-100,2013-02-28 21:27:00,
2013-02-28 16:32:00,42.5,37.0,29.53,ENE,67,1.2,4.2,79,0.00,,,0.01,Rainwise IP-100,2013-02-28 21:32:00,
2013-02-28 16:37:00,42.4,37.0,29.53,North,360,1.6,6.1,80,0.00,,,0.01,Rainwise IP-100,2013-02-28 21:37:00,
2013-02-28 16:42:00,42.1,37.0,29.53,NNE,22,0.0,6.3,80,0.00,,,0.01,Rainwise IP-100,2013-02-28 21:42:00,
2013-02-28 16:47:00,41.9,37.0,29.53,North,360,1.4,4.0,80,0.00,,,0.01,Rainwise IP-100,2013-02-28 21:47:00,
2013-02-28 16:52:00,41.7,37.0,29.53,North,360,1.4,3.7,81,0.00,,,0.01,Rainwise IP-100,2013-02-28 21:52:00,
2013-02-28 16:57:00,41.5,37.0,29.53,NNW,337,3.3,6.1,81,0.00,,,0.01,Rainwise IP-100,2013-02-28 21:57:00,
2013-02-28 17:02:00,41.4,36.0,29.53,NNW,337,1.2,4.9,82,0.00,,,0.01,Rainwise IP-100,2013-02-28 22:02:00,
2013-02-28 17:07:00,41.1,37.0,29.53,NNW,337,1.6,2.3,83,0.00,,,0.01,Rainwise IP-100,2013-02-28 22:07:00,
2013-02-28 17:12:00,41.0,37.0,29.53,NNW,337,0.0,2.1,84,0.00,,,0.01,Rainwise IP-100,2013-02-28 22:12:00,
2013-02-28 17:17:00,40.9,37.0,29.53,NNW,337,0.0,1.4,84,0.00,,,0.01,Rainwise IP-100,2013-02-28 22:17:00,
2013-02-28 17:22:00,40.8,37.0,29.53,NNW,337,0.0,1.6,85,0.00,,,0.01,Rainwise IP-100,2013-02-28 22:22:00,
2013-02-28 17:27:00,40.6,37.0,29.53,NNW,337,1.2,2.3,85,0.00,,,0.01,Rainwise IP-100,2013-02-28 22:27:00,
2013-02-28 17:32:00,40.5,37.0,29.53,NNW,337,1.6,2.1,85,0.00,,,0.01,Rainwise IP-100,2013-02-28 22:32:00,
2013-02-28 17:37:00,40.4,36.0,29.53,NNW,337,2.1,3.3,85,0.00,,,0.01,Rainwise IP-100,2013-02-28 22:37:00,
2013-02-28 17:42:00,40.3,37.0,29.53,North,360,1.2,3.7,86,0.00,,,0.01,Rainwise IP-100,2013-02-28 22:42:00,
2013-02-28 17:47:00,40.2,37.0,29.53,North,360,2.1,3.0,86,0.00,,,0.01,Rainwise IP-100,2013-02-28 22:47:00,
2013-02-28 17:52:00,40.1,37.0,29.54,NNW,337,2.1,4.0,86,0.00,,,0.01,Rainwise IP-100,2013-02-28 22:52:00,
2013-02-28 17:57:00,40.1,37.0,29.53,North,360,2.1,4.2,86,0.00,,,0.01,Rainwise IP-100,2013-02-28 22:57:00,
2013-02-28 18:02:00,40.0,37.0,29.54,North,360,2.6,4.7,86,0.00,,,0.01,Rainwise IP-100,2013-02-28 23:02:00,
2013-02-28 18:07:00,39.8,37.0,29.54,North,360,1.9,5.1,86,0.00,,,0.01,Rainwise IP-100,2013-02-28 23:07:00,
2013-02-28 18:12:00,39.6,37.0,29.54,North,360,1.6,4.2,86,0.00,,,0.01,Rainwise IP-100,2013-02-28 23:12:00,
2013-02-28 18:17:00,39.5,37.0,29.54,North,360,1.9,4.9,87,0.00,,,0.01,Rainwise IP-100,2013-02-28 23:17:00,
2013-02-28 18:22:00,39.3,36.0,29.54,North,360,1.9,3.7,87,0.00,,,0.01,Rainwise IP-100,2013-02-28 23:22:00,
2013-02-28 18:27:00,39.1,36.0,29.54,North,360,1.6,4.0,87,0.00,,,0.01,Rainwise IP-100,2013-02-28 23:27:00,
2013-02-28 18:32:00,39.0,36.0,29.54,North,360,1.9,3.0,87,0.00,,,0.01,Rainwise IP-100,2013-02-28 23:32:00,
2013-02-28 18:37:00,38.8,36.0,29.54,North,360,0.0,2.1,88,0.00,,,0.01,Rainwise IP-100,2013-02-28 23:37:00,
2013-02-28 18:42:00,38.6,36.0,29.55,North,360,0.0,3.0,88,0.00,,,0.01,Rainwise IP-100,2013-02-28 23:42:00,
2013-02-28 18:47:00,38.4,35.0,29.54,North,360,0.0,1.6,88,0.00,,,0.01,Rainwise IP-100,2013-02-28 23:47:00,
2013-02-28 18:52:00,38.3,35.0,29.55,North,360,0.0,1.4,89,0.00,,,0.01,Rainwise IP-100,2013-02-28 23:52:00,
2013-02-28 18:57:00,38.3,35.0,29.55,NW,315,0.0,2.8,89,0.00,,,0.01,Rainwise IP-100,2013-02-28 23:57:00,
2013-02-28 19:02:00,38.2,35.0,29.55,NW,315,1.6,2.3,89,0.00,,,0.01,Rainwise IP-100,2013-03-01 00:02:00,
2013-02-28 19:07:00,38.1,36.0,29.55,NNW,337,1.2,2.6,90,0.00,,,0.01,Rainwise IP-100,2013-03-01 00:07:00,
2013-02-28 19:12:00,37.9,36.0,29.55,NNW,337,1.6,2.3,90,0.00,,,0.01,Rainwise IP-100,2013-03-01 00:12:00,
2013-02-28 19:17:00,37.8,36.0,29.55,NNW,337,1.4,2.6,90,0.00,,,0.01,Rainwise IP-100,2013-03-01 00:17:00,
2013-02-28 19:22:00,37.6,36.0,29.55,NNW,337,1.4,2.1,90,0.00,,,0.01,Rainwise IP-100,2013-03-01 00:22:00,
2013-02-28 19:27:00,37.5,36.0,29.55,NNW,337,1.2,2.1,91,0.00,,,0.01,Rainwise IP-100,2013-03-01 00:27:00,
2013-02-28 19:32:00,37.5,36.0,29.55,NNW,337,0.0,1.6,91,0.00,,,0.01,Rainwise IP-100,2013-03-01 00:32:00,
2013-02-28 19:37:00,37.4,35.0,29.54,NNW,337,0.0,3.0,91,0.00,,,0.01,Rainwise IP-100,2013-03-01 00:37:00,
2013-02-28 19:42:00,37.4,35.0,29.54,NNW,337,0.0,1.6,91,0.00,,,0.01,Rainwise IP-100,2013-03-01 00:42:00,
2013-02-28 19:47:00,37.5,36.0,29.55,NNW,337,1.4,1.4,91,0.00,,,0.01,Rainwise IP-100,2013-03-01 00:47:00,
2013-02-28 19:52:00,37.5,36.0,29.54,NNW,337,0.0,1.6,91,0.00,,,0.01,Rainwise IP-100,2013-03-01 00:52:00,
2013-02-28 19:57:00,37.5,36.0,29.55,NNW,337,0.0,1.2,91,0.00,,,0.01,Rainwise IP-100,2013-03-01 00:57:00,
2013-02-28 20:02:00,37.4,35.0,29.55,NNW,337,0.0,1.2,91,0.00,,,0.01,Rainwise IP-100,2013-03-01 01:02:00,
2013-02-28 20:07:00,37.4,35.0,29.55,NW,315,1.2,3.0,91,0.00,,,0.01,Rainwise IP-100,2013-03-01 01:07:00,
2013-02-28 20:12:00,37.3,35.0,29.55,NW,315,1.2,1.9,91,0.00,,,0.01,Rainwise IP-100,2013-03-01 01:12:00,
2013-02-28 20:17:00,37.3,35.0,29.55,NW,315,1.2,2.1,92,0.00,,,0.01,Rainwise IP-100,2013-03-01 01:17:00,
2013-02-28 20:22:00,37.2,35.0,29.55,NW,315,1.2,2.3,92,0.00,,,0.01,Rainwise IP-100,2013-03-01 01:22:00,
2013-02-28 20:27:00,37.1,35.0,29.55,NW,315,0.0,2.1,92,0.00,,,0.01,Rainwise IP-100,2013-03-01 01:27:00,
2013-02-28 20:33:00,37.0,35.0,29.55,NW,315,1.4,2.1,92,0.00,,,0.01,Rainwise IP-100,2013-03-01 01:33:00,
2013-02-28 20:38:00,37.0,35.0,29.55,NW,315,0.0,2.1,92,0.00,,,0.01,Rainwise IP-100,2013-03-01 01:38:00,
2013-02-28 20:43:00,37.0,35.0,29.55,NW,315,0.0,1.9,92,0.00,,,0.01,Rainwise IP-100,2013-03-01 01:43:00,
2013-02-28 20:48:00,37.0,35.0,29.55,NW,315,2.3,2.3,93,0.00,,,0.01,Rainwise IP-100,2013-03-01 01:48:00,
2013-02-28 20:53:00,37.0,35.0,29.55,NW,315,1.4,2.6,93,0.00,,,0.01,Rainwise IP-100,2013-03-01 01:53:00,
2013-02-28 20:58:00,37.1,35.0,29.54,NW,315,0.0,3.0,93,0.00,,,0.01,Rainwise IP-100,2013-03-01 01:58:00,
2013-02-28 21:03:00,37.0,35.0,29.54,NW,315,0.0,0.0,92,0.00,,,0.01,Rainwise IP-100,2013-03-01 02:03:00,
2013-02-28 21:08:00,36.8,35.0,29.55,NW,315,0.0,0.0,92,0.00,,,0.01,Rainwise IP-100,2013-03-01 02:08:00,
2013-02-28 21:13:00,36.7,35.0,29.55,NW,315,0.0,0.0,92,0.00,,,0.01,Rainwise IP-100,2013-03-01 02:13:00,
2013-02-28 21:18:00,36.5,35.0,29.55,NW,315,0.0,0.0,92,0.00,,,0.01,Rainwise IP-100,2013-03-01 02:18:00,
2013-02-28 21:23:00,36.5,35.0,29.55,NW,315,0.0,0.0,93,0.00,,,0.01,Rainwise IP-100,2013-03-01 02:23:00,
2013-02-28 21:28:00,36.4,35.0,29.55,NW,315,0.0,0.0,93,0.00,,,0.01,Rainwise IP-100,2013-03-01 02:28:00,
2013-02-28 21:33:00,36.2,35.0,29.55,NW,315,0.0,0.0,93,0.00,,,0.01,Rainwise IP-100,2013-03-01 02:33:00,
2013-02-28 21:38:00,36.1,35.0,29.55,NW,315,0.0,0.0,93,0.00,,,0.01,Rainwise IP-100,2013-03-01 02:38:00,
2013-02-28 21:43:00,35.9,35.0,29.55,NW,315,0.0,0.0,93,0.00,,,0.01,Rainwise IP-100,2013-03-01 02:43:00,
2013-02-28 21:48:00,35.8,35.0,29.54,NW,315,0.0,0.0,93,0.00,,,0.01,Rainwise IP-100,2013-03-01 02:48:00,
2013-02-28 21:53:00,35.7,35.0,29.54,NW,315,0.0,0.0,93,0.00,,,0.01,Rainwise IP-100,2013-03-01 02:53:00,
2013-02-28 21:58:00,35.6,35.0,29.54,NW,315,0.0,0.0,94,0.00,,,0.01,Rainwise IP-100,2013-03-01 02:58:00,
2013-02-28 22:03:00,35.5,35.0,29.54,NW,315,0.0,0.0,94,0.00,,,0.01,Rainwise IP-100,2013-03-01 03:03:00,
2013-02-28 22:08:00,35.4,33.0,29.55,NW,315,0.0,0.0,94,0.00,,,0.01,Rainwise IP-100,2013-03-01 03:08:00,
2013-02-28 22:13:00,35.2,33.0,29.55,NW,315,1.6,1.6,94,0.00,,,0.01,Rainwise IP-100,2013-03-01 03:13:00,
2013-02-28 22:18:00,35.1,33.0,29.55,NW,315,0.0,1.6,94,0.00,,,0.01,Rainwise IP-100,2013-03-01 03:18:00,
2013-02-28 22:23:00,35.0,33.0,29.54,NW,315,0.0,1.6,95,0.00,,,0.01,Rainwise IP-100,2013-03-01 03:23:00,
2013-02-28 22:28:00,34.9,33.0,29.54,NW,315,0.0,1.9,95,0.00,,,0.01,Rainwise IP-100,2013-03-01 03:28:00,
2013-02-28 22:33:00,34.9,33.0,29.54,NW,315,1.4,1.4,96,0.00,,,0.01,Rainwise IP-100,2013-03-01 03:33:00,
2013-02-28 22:38:00,34.8,33.0,29.54,NW,315,0.0,1.6,96,0.00,,,0.01,Rainwise IP-100,2013-03-01 03:38:00,
2013-02-28 22:43:00,34.8,33.0,29.55,NW,315,1.2,1.9,96,0.00,,,0.01,Rainwise IP-100,2013-03-01 03:43:00,
2013-02-28 22:48:00,34.8,33.0,29.55,NW,315,1.2,1.9,96,0.00,,,0.01,Rainwise IP-100,2013-03-01 03:48:00,
2013-02-28 22:53:00,34.8,33.0,29.54,NW,315,0.0,1.9,96,0.00,,,0.01,Rainwise IP-100,2013-03-01 03:53:00,
2013-02-28 22:58:00,34.8,33.0,29.54,NW,315,1.4,1.9,96,0.00,,,0.01,Rainwise IP-100,2013-03-01 03:58:00,
2013-02-28 23:03:00,34.7,33.0,29.55,NW,315,0.0,1.6,96,0.00,,,0.01,Rainwise IP-100,2013-03-01 04:03:00,
2013-02-28 23:08:00,34.7,33.0,29.54,NW,315,0.0,0.0,97,0.00,,,0.01,Rainwise IP-100,2013-03-01 04:08:00,
2013-02-28 23:13:00,34.8,33.0,29.54,NW,315,0.0,1.6,97,0.00,,,0.01,Rainwise IP-100,2013-03-01 04:13:00,
2013-02-28 23:18:00,35.1,33.0,29.55,NW,315,0.0,1.6,97,0.00,,,0.01,Rainwise IP-100,2013-03-01 04:18:00,
2013-02-28 23:23:00,35.3,33.0,29.55,NW,315,1.4,1.6,97,0.00,,,0.01,Rainwise IP-100,2013-03-01 04:23:00,
2013-02-28 23:28:00,35.4,33.0,29.54,NW,315,1.2,1.9,97,0.00,,,0.01,Rainwise IP-100,2013-03-01 04:28:00,
2013-02-28 23:33:00,35.5,35.0,29.54,NW,315,0.0,2.1,97,0.00,,,0.01,Rainwise IP-100,2013-03-01 04:33:00,
2013-02-28 23:38:00,35.5,35.0,29.54,NW,315,0.0,1.4,97,0.00,,,0.01,Rainwise IP-100,2013-03-01 04:38:00,
2013-02-28 23:43:00,35.4,33.0,29.54,NW,315,1.2,2.1,97,0.00,,,0.01,Rainwise IP-100,2013-03-01 04:43:00,
2013-02-28 23:48:00,35.5,35.0,29.55,NW,315,1.2,2.8,97,0.00,,,0.01,Rainwise IP-100,2013-03-01 04:48:00,
2013-02-28 23:53:00,35.6,35.0,29.54,NW,315,1.6,2.3,97,0.00,,,0.01,Rainwise IP-100,2013-03-01 04:53:00,
2013-02-28 23:58:00,35.6,35.0,29.55,NNE,22,0.0,2.6,97,0.00,,,0.01,Rainwise IP-100,2013-03-01 04:58:00,